Time,TemperatureF,DewpointF,PressureIn,WindDirection,WindDirectionDegrees,WindSpeedMPH,WindSpeedGustMPH,Humidity,HourlyPrecipIn,Conditions,Clouds,dailyrainin,SoftwareType,DateUTC
2013-02-06 00:00:00,37.8,32.2,29.94,NNE,24,0.0,0.0,80,0.00,,,0.00,Wunderground v.1.15,2013-02-06 05:00:00,
2013-02-06 00:02:00,37.7,31.8,29.93,NNE,24,0.0,0.0,79,0.00,,,0.00,Wunderground v.1.15,2013-02-06 05:02:00,
2013-02-06 00:03:00,37.7,31.8,29.94,NNE,24,0.0,0.0,79,0.00,,,0.00,Wunderground v.1.15,2013-02-06 05:03:00,
2013-02-06 00:04:00,37.7,32.1,29.94,NNE,24,0.0,0.0,80,0.00,,,0.00,Wunderground v.1.15,2013-02-06 05:04:00,
2013-02-06 00:10:00,37.4,31.5,29.93,NNE,24,0.0,0.0,79,0.00,,,0.00,Wunderground v.1.15,2013-02-06 05:10:00,
2013-02-06 00:15:00,37.3,32.0,29.93,NNE,24,0.0,0.0,81,0.00,,,0.00,Wunderground v.1.15,2013-02-06 05:15:00,
2013-02-06 00:21:00,37.2,31.9,29.94,NNE,26,0.0,0.0,81,0.00,,,0.00,Wunderground v.1.15,2013-02-06 05:21:00,
2013-02-06 00:26:00,36.9,31.6,29.94,WNW,295,0.0,0.0,81,0.00,,,0.00,Wunderground v.1.15,2013-02-06 05:26:00,
2013-02-06 00:32:00,36.5,31.2,29.94,NW,307,0.0,0.0,81,0.00,,,0.00,Wunderground v.1.15,2013-02-06 05:32:00,
2013-02-06 00:37:00,36.6,31.6,29.94,NW,306,0.0,1.0,82,0.00,,,0.00,Wunderground v.1.15,2013-02-06 05:37:00,
2013-02-06 00:43:00,36.9,31.9,29.94,NW,306,0.0,0.0,82,0.00,,,0.00,Wunderground v.1.15,2013-02-06 05:43:00,
2013-02-06 00:49:00,36.9,31.6,29.94,NW,306,0.0,0.0,81,0.00,,,0.00,Wunderground v.1.15,2013-02-06 05:49:00,
2013-02-06 00:54:00,37.2,31.9,29.94,NW,306,0.0,0.0,81,0.00,,,0.00,Wunderground v.1.15,2013-02-06 05:54:00,
2013-02-06 01:00:00,37.4,32.1,29.94,NW,306,0.0,0.0,81,0.00,,,0.00,Wunderground v.1.15,2013-02-06 06:00:00,
2013-02-06 01:05:00,37.4,32.1,29.94,NW,306,0.0,1.0,81,0.00,,,0.00,Wunderground v.1.15,2013-02-06 06:05:00,
2013-02-06 01:10:00,37.9,32.6,29.94,NW,306,0.0,0.0,81,0.00,,,0.00,Wunderground v.1.15,2013-02-06 06:10:00,
2013-02-06 01:16:00,38.6,32.6,29.94,NNE,13,0.0,1.0,79,0.00,,,0.00,Wunderground v.1.15,2013-02-06 06:16:00,
2013-02-06 01:21:00,38.8,32.8,29.94,NNE,14,0.0,0.0,79,0.00,,,0.00,Wunderground v.1.15,2013-02-06 06:21:00,
2013-02-06 01:27:00,39.9,33.6,29.94,NNE,13,0.0,0.0,78,0.00,,,0.00,Wunderground v.1.15,2013-02-06 06:27:00,
2013-02-06 01:32:00,40.4,33.4,29.94,NNE,13,0.0,0.0,76,0.00,,,0.00,Wunderground v.1.15,2013-02-06 06:32:00,
2013-02-06 01:37:00,40.5,33.5,29.94,NNE,13,0.0,0.0,76,0.00,,,0.00,Wunderground v.1.15,2013-02-06 06:37:00,
2013-02-06 01:43:00,40.3,33.3,29.94,NNE,13,0.0,0.0,76,0.00,,,0.00,Wunderground v.1.15,2013-02-06 06:43:00,
2013-02-06 01:48:00,39.8,32.5,29.94,NNE,14,0.0,0.0,75,0.00,,,0.00,Wunderground v.1.15,2013-02-06 06:48:00,
2013-02-06 01:54:00,39.8,33.2,29.94,NNE,15,1.0,1.0,77,0.00,,,0.00,Wunderground v.1.15,2013-02-06 06:54:00,
2013-02-06 01:59:00,39.6,33.0,29.94,North,5,0.0,1.0,77,0.00,,,0.00,Wunderground v.1.15,2013-02-06 06:59:00,
2013-02-06 02:04:00,40.4,33.4,29.94,North,360,0.0,1.0,76,0.00,,,0.00,Wunderground v.1.15,2013-02-06 07:04:00,
2013-02-06 02:09:00,41.1,33.8,29.93,WNW,292,0.0,3.0,75,0.00,,,0.00,Wunderground v.1.15,2013-02-06 07:09:00,
2013-02-06 02:14:00,42.9,34.1,29.93,WNW,291,0.0,0.0,71,0.00,,,0.00,Wunderground v.1.15,2013-02-06 07:14:00,
2013-02-06 02:19:00,44.7,35.1,29.93,WNW,292,0.0,1.0,69,0.00,,,0.00,Wunderground v.1.15,2013-02-06 07:19:00,
2013-02-06 02:24:00,46.0,35.3,29.93,WNW,292,0.0,1.0,66,0.00,,,0.00,Wunderground v.1.15,2013-02-06 07:24:00,
2013-02-06 02:29:00,46.9,35.4,29.93,WNW,292,0.0,1.0,64,0.00,,,0.00,Wunderground v.1.15,2013-02-06 07:29:00,
2013-02-06 02:34:00,47.6,35.6,29.93,WNW,291,0.0,0.0,63,0.00,,,0.00,Wunderground v.1.15,2013-02-06 07:34:00,
2013-02-06 02:39:00,47.9,35.5,29.93,WNW,293,0.0,3.0,62,0.00,,,0.00,Wunderground v.1.15,2013-02-06 07:39:00,
2013-02-06 02:44:00,48.1,35.7,29.93,WNW,293,0.0,0.0,62,0.00,,,0.00,Wunderground v.1.15,2013-02-06 07:44:00,
2013-02-06 02:49:00,48.1,35.7,29.93,WNW,293,0.0,0.0,62,0.00,,,0.00,Wunderground v.1.15,2013-02-06 07:49:00,
2013-02-06 02:54:00,47.7,35.3,29.93,WNW,292,0.0,0.0,62,0.00,,,0.00,Wunderground v.1.15,2013-02-06 07:54:00,
2013-02-06 02:59:00,47.4,35.4,29.94,WNW,292,0.0,2.0,63,0.00,,,0.00,Wunderground v.1.15,2013-02-06 07:59:00,
2013-02-06 03:04:00,47.4,35.4,29.94,WNW,292,0.0,3.0,63,0.00,,,0.00,Wunderground v.1.15,2013-02-06 08:04:00,
2013-02-06 03:09:00,48.2,35.8,29.94,NW,313,0.0,3.0,62,0.00,,,0.00,Wunderground v.1.15,2013-02-06 08:09:00,
2013-02-06 03:14:00,48.3,36.3,29.94,NW,313,0.0,0.0,63,0.00,,,0.00,Wunderground v.1.15,2013-02-06 08:14:00,
2013-02-06 03:19:00,47.5,35.9,29.94,NW,313,0.0,2.0,64,0.00,,,0.00,Wunderground v.1.15,2013-02-06 08:19:00,
2013-02-06 03:24:00,46.2,35.5,29.95,NW,313,0.0,1.0,66,0.00,,,0.00,Wunderground v.1.15,2013-02-06 08:24:00,
2013-02-06 03:29:00,45.1,35.5,29.95,WNW,300,1.0,2.0,69,0.00,,,0.00,Wunderground v.1.15,2013-02-06 08:29:00,
2013-02-06 03:34:00,45.3,35.7,29.95,WNW,300,1.0,3.0,69,0.00,,,0.00,Wunderground v.1.15,2013-02-06 08:34:00,
2013-02-06 03:39:00,45.9,35.9,29.95,NW,313,1.0,3.0,68,0.00,,,0.00,Wunderground v.1.15,2013-02-06 08:39:00,
2013-02-06 03:44:00,46.1,36.5,29.95,WNW,297,1.0,4.0,69,0.00,,,0.00,Wunderground v.1.15,2013-02-06 08:44:00,
2013-02-06 03:49:00,46.4,36.8,29.95,NW,313,2.0,6.0,69,0.00,,,0.00,Wunderground v.1.15,2013-02-06 08:49:00,
2013-02-06 03:54:00,46.9,37.3,29.94,WNW,294,0.0,5.0,69,0.00,,,0.00,Wunderground v.1.15,2013-02-06 08:54:00,
2013-02-06 03:59:00,47.5,37.5,29.95,WNW,295,2.0,5.0,68,0.00,,,0.00,Wunderground v.1.15,2013-02-06 08:59:00,
2013-02-06 04:00:00,47.6,37.6,29.95,WNW,292,2.0,10.0,68,0.00,,,-99.99,WeatherLink 6.0.0,2013-02-06 09:00:00,
2013-02-06 04:04:00,48.2,37.8,29.95,WNW,296,1.0,10.0,67,0.00,,,0.00,Wunderground v.1.15,2013-02-06 09:04:00,
2013-02-06 04:09:00,48.5,37.7,29.95,NW,319,2.0,10.0,66,0.00,,,0.00,Wunderground v.1.15,2013-02-06 09:09:00,
2013-02-06 04:15:00,48.9,38.0,29.94,WNW,296,3.0,7.0,66,0.00,,,0.00,Wunderground v.1.15,2013-02-06 09:15:00,
2013-02-06 04:20:00,49.2,37.9,29.94,WNW,290,0.0,2.0,65,0.00,,,0.00,Wunderground v.1.15,2013-02-06 09:20:00,
2013-02-06 04:25:00,49.2,37.9,29.94,NW,309,2.0,5.0,65,0.00,,,0.00,Wunderground v.1.15,2013-02-06 09:25:00,
2013-02-06 04:30:00,49.3,37.2,29.95,WNW,299,3.0,4.0,63,0.00,,,0.00,Wunderground v.1.15,2013-02-06 09:30:00,
2013-02-06 04:35:00,49.7,37.2,29.95,WNW,301,0.0,7.0,62,0.00,,,0.00,Wunderground v.1.15,2013-02-06 09:35:00,
2013-02-06 04:40:00,49.6,36.7,29.95,NNW,346,2.0,2.0,61,0.00,,,0.00,Wunderground v.1.15,2013-02-06 09:40:00,
2013-02-06 04:45:00,49.3,36.4,29.95,NW,309,0.0,6.0,61,0.00,,,0.00,Wunderground v.1.15,2013-02-06 09:45:00,
2013-02-06 04:50:00,49.2,36.3,29.96,ENE,63,0.0,2.0,61,0.00,,,0.00,Wunderground v.1.15,2013-02-06 09:50:00,
2013-02-06 04:55:00,48.9,36.0,29.96,ENE,67,0.0,2.0,61,0.00,,,0.00,Wunderground v.1.15,2013-02-06 09:55:00,
2013-02-06 05:00:00,48.6,35.7,29.97,ENE,68,0.0,0.0,61,0.00,,,0.00,Wunderground v.1.15,2013-02-06 10:00:00,
2013-02-06 05:05:00,48.3,35.9,29.98,SW,218,5.0,5.0,62,0.00,,,0.00,Wunderground v.1.15,2013-02-06 10:05:00,
2013-02-06 05:10:00,48.3,35.5,29.98,WNW,298,0.0,1.0,61,0.00,,,0.00,Wunderground v.1.15,2013-02-06 10:10:00,
2013-02-06 05:15:00,48.2,35.4,29.98,WNW,298,0.0,2.0,61,0.00,,,0.00,Wunderground v.1.15,2013-02-06 10:15:00,
2013-02-06 05:20:00,48.0,35.2,29.98,WNW,292,4.0,4.0,61,0.00,,,0.00,Wunderground v.1.15,2013-02-06 10:20:00,
2013-02-06 05:25:00,48.1,34.9,29.99,NW,317,0.0,4.0,60,0.00,,,0.00,Wunderground v.1.15,2013-02-06 10:25:00,
2013-02-06 05:30:00,48.2,35.0,29.99,NW,319,1.0,2.0,60,0.00,,,0.00,Wunderground v.1.15,2013-02-06 10:30:00,
2013-02-06 05:35:00,48.1,34.9,30.00,NE,34,1.0,6.0,60,0.00,,,0.00,Wunderground v.1.15,2013-02-06 10:35:00,
2013-02-06 05:40:00,47.9,34.7,30.00,WNW,302,1.0,2.0,60,0.00,,,0.00,Wunderground v.1.15,2013-02-06 10:40:00,
2013-02-06 05:45:00,47.6,34.8,30.00,WNW,302,0.0,2.0,61,0.00,,,0.00,Wunderground v.1.15,2013-02-06 10:45:00,
2013-02-06 05:50:00,47.1,34.7,30.00,WNW,302,1.0,2.0,62,0.00,,,0.00,Wunderground v.1.15,2013-02-06 10:50:00,
2013-02-06 05:55:00,46.6,34.3,30.00,WNW,302,0.0,2.0,62,0.00,,,0.00,Wunderground v.1.15,2013-02-06 10:55:00,
2013-02-06 06:00:00,46.1,34.2,30.01,WNW,302,0.0,0.0,63,0.00,,,0.00,Wunderground v.1.15,2013-02-06 11:00:00,
2013-02-06 06:05:00,45.6,34.1,30.02,WNW,302,0.0,0.0,64,0.00,,,0.00,Wunderground v.1.15,2013-02-06 11:05:00,
2013-02-06 06:10:00,45.3,34.2,30.02,WNW,302,0.0,1.0,65,0.00,,,0.00,Wunderground v.1.15,2013-02-06 11:10:00,
2013-02-06 06:15:00,45.0,33.9,30.03,WNW,302,0.0,1.0,65,0.00,,,0.00,Wunderground v.1.15,2013-02-06 11:15:00,
2013-02-06 06:20:00,44.5,33.8,30.03,WNW,302,0.0,1.0,66,0.00,,,0.00,Wunderground v.1.15,2013-02-06 11:20:00,
2013-02-06 06:25:00,44.2,33.6,30.04,WNW,302,1.0,1.0,66,0.00,,,0.00,Wunderground v.1.15,2013-02-06 11:25:00,
2013-02-06 06:30:00,44.1,33.8,30.04,WNW,302,0.0,1.0,67,0.00,,,0.00,Wunderground v.1.15,2013-02-06 11:30:00,
2013-02-06 06:35:00,43.9,33.6,30.04,WNW,302,0.0,1.0,67,0.00,,,0.00,Wunderground v.1.15,2013-02-06 11:35:00,
2013-02-06 06:40:00,43.7,33.5,30.05,WNW,302,0.0,0.0,67,0.00,,,0.00,Wunderground v.1.15,2013-02-06 11:40:00,
2013-02-06 06:45:00,43.7,33.8,30.05,WNW,302,0.0,1.0,68,0.00,,,0.00,Wunderground v.1.15,2013-02-06 11:45:00,
2013-02-06 06:50:00,43.8,33.6,30.05,WNW,302,0.0,1.0,67,0.00,,,0.00,Wunderground v.1.15,2013-02-06 11:50:00,
2013-02-06 06:55:00,43.7,33.5,30.05,WNW,302,0.0,1.0,67,0.00,,,0.00,Wunderground v.1.15,2013-02-06 11:55:00,
2013-02-06 07:00:00,43.5,33.3,30.06,WNW,302,0.0,0.0,67,0.00,,,0.00,Wunderground v.1.15,2013-02-06 12:00:00,
2013-02-06 07:05:00,43.2,33.3,30.07,WNW,302,0.0,0.0,68,0.00,,,0.00,Wunderground v.1.15,2013-02-06 12:05:00,
2013-02-06 07:10:00,43.0,33.2,30.07,WNW,302,0.0,0.0,68,0.00,,,0.00,Wunderground v.1.15,2013-02-06 12:10:00,
2013-02-06 07:15:00,42.9,33.1,30.07,WNW,302,0.0,1.0,68,0.00,,,0.00,Wunderground v.1.15,2013-02-06 12:15:00,
2013-02-06 07:20:00,42.6,32.8,30.07,WNW,302,0.0,0.0,68,0.00,,,0.00,Wunderground v.1.15,2013-02-06 12:20:00,
2013-02-06 07:25:00,42.3,33.2,30.08,WNW,302,0.0,0.0,70,0.00,,,0.00,Wunderground v.1.15,2013-02-06 12:25:00,
2013-02-06 07:30:00,42.2,32.8,30.08,WNW,302,0.0,0.0,69,0.00,,,0.00,Wunderground v.1.15,2013-02-06 12:30:00,
2013-02-06 07:35:00,42.3,32.8,30.08,WNW,302,0.0,0.0,69,0.00,,,0.00,Wunderground v.1.15,2013-02-06 12:35:00,
2013-02-06 07:40:00,42.4,32.9,30.09,WNW,302,0.0,0.0,69,0.00,,,0.00,Wunderground v.1.15,2013-02-06 12:40:00,
2013-02-06 07:45:00,42.4,32.9,30.08,WNW,302,0.0,1.0,69,0.00,,,0.00,Wunderground v.1.15,2013-02-06 12:45:00,
2013-02-06 07:50:00,42.8,33.3,30.09,WNW,302,0.0,0.0,69,0.00,,,0.00,Wunderground v.1.15,2013-02-06 12:50:00,
2013-02-06 07:55:00,43.1,34.0,30.09,WNW,302,0.0,0.0,70,0.00,,,0.00,Wunderground v.1.15,2013-02-06 12:55:00,
2013-02-06 08:00:00,43.6,34.5,30.10,WNW,302,0.0,1.0,70,0.00,,,0.00,Wunderground v.1.15,2013-02-06 13:00:00,
2013-02-06 08:05:00,44.5,33.8,30.09,WNW,302,0.0,2.0,66,0.00,,,0.00,Wunderground v.1.15,2013-02-06 13:05:00,
2013-02-06 08:10:00,45.3,33.8,30.10,WNW,302,0.0,1.0,64,0.00,,,0.00,Wunderground v.1.15,2013-02-06 13:10:00,
2013-02-06 08:15:00,46.0,34.1,30.10,WNW,302,1.0,2.0,63,0.00,,,0.00,Wunderground v.1.15,2013-02-06 13:15:00,
2013-02-06 08:20:00,46.4,34.5,30.10,WNW,302,1.0,1.0,63,0.00,,,0.00,Wunderground v.1.15,2013-02-06 13:20:00,
2013-02-06 08:25:00,46.7,35.2,30.10,WNW,302,2.0,2.0,64,0.00,,,0.00,Wunderground v.1.15,2013-02-06 13:25:00,
2013-02-06 08:31:00,46.9,34.1,30.11,WNW,302,0.0,2.0,61,0.00,,,0.00,Wunderground v.1.15,2013-02-06 13:31:00,
2013-02-06 08:36:00,47.1,34.3,30.11,WNW,302,3.0,3.0,61,0.00,,,0.00,Wunderground v.1.15,2013-02-06 13:36:00,
2013-02-06 08:41:00,47.4,34.2,30.11,NW,309,3.0,6.0,60,0.00,,,0.00,Wunderground v.1.15,2013-02-06 13:41:00,
2013-02-06 08:46:00,47.7,34.5,30.11,NW,305,2.0,6.0,60,0.00,,,0.00,Wunderground v.1.15,2013-02-06 13:46:00,
2013-02-06 08:51:00,47.8,34.6,30.11,NW,306,2.0,3.0,60,0.00,,,0.00,Wunderground v.1.15,2013-02-06 13:51:00,
2013-02-06 08:56:00,48.1,34.9,30.11,WNW,299,0.0,4.0,60,0.00,,,0.00,Wunderground v.1.15,2013-02-06 13:56:00,
2013-02-06 09:01:00,48.5,34.8,30.11,WNW,300,2.0,2.0,59,0.00,,,0.00,Wunderground v.1.15,2013-02-06 14:01:00,
2013-02-06 09:06:00,48.9,34.8,30.12,WNW,300,0.0,3.0,58,0.00,,,0.00,Wunderground v.1.15,2013-02-06 14:06:00,
2013-02-06 09:11:00,49.1,34.5,30.11,WNW,300,0.0,2.0,57,0.00,,,0.00,Wunderground v.1.15,2013-02-06 14:11:00,
2013-02-06 09:16:00,49.4,34.8,30.11,WNW,300,1.0,2.0,57,0.00,,,0.00,Wunderground v.1.15,2013-02-06 14:16:00,
2013-02-06 09:21:00,49.6,34.5,30.11,WNW,300,1.0,3.0,56,0.00,,,0.00,Wunderground v.1.15,2013-02-06 14:21:00,
2013-02-06 09:26:00,49.8,34.7,30.12,NW,310,2.0,4.0,56,0.00,,,0.00,Wunderground v.1.15,2013-02-06 14:26:00,
2013-02-06 09:31:00,50.1,35.0,30.12,WNW,298,2.0,5.0,56,0.00,,,0.00,Wunderground v.1.15,2013-02-06 14:31:00,
2013-02-06 09:36:00,50.2,35.1,30.12,NW,311,2.0,5.0,56,0.00,,,0.00,Wunderground v.1.15,2013-02-06 14:36:00,
2013-02-06 09:41:00,50.3,34.3,30.12,WNW,299,1.0,3.0,54,0.00,,,0.00,Wunderground v.1.15,2013-02-06 14:41:00,
2013-02-06 09:46:00,50.5,34.0,30.12,WNW,291,3.0,7.0,53,0.00,,,0.00,Wunderground v.1.15,2013-02-06 14:46:00,
2013-02-06 09:51:00,50.7,32.2,30.12,WNW,296,2.0,5.0,49,0.00,,,0.00,Wunderground v.1.15,2013-02-06 14:51:00,
2013-02-06 09:56:00,50.9,33.4,30.12,WNW,300,0.0,5.0,51,0.00,,,0.00,Wunderground v.1.15,2013-02-06 14:56:00,
2013-02-06 10:01:00,51.2,32.7,30.12,NW,304,2.0,4.0,49,0.00,,,0.00,Wunderground v.1.15,2013-02-06 15:01:00,
2013-02-06 10:06:00,51.4,33.4,30.12,NW,317,0.0,5.0,50,0.00,,,0.00,Wunderground v.1.15,2013-02-06 15:06:00,
2013-02-06 10:11:00,51.9,33.3,30.12,NW,324,2.0,4.0,49,0.00,,,0.00,Wunderground v.1.15,2013-02-06 15:11:00,
2013-02-06 10:16:00,52.1,32.5,30.12,WNW,292,0.0,7.0,47,0.00,,,0.00,Wunderground v.1.15,2013-02-06 15:16:00,
2013-02-06 10:21:00,52.4,32.2,30.12,WNW,298,1.0,4.0,46,0.00,,,0.00,Wunderground v.1.15,2013-02-06 15:21:00,
2013-02-06 10:26:00,52.5,33.4,30.12,WNW,291,1.0,5.0,48,0.00,,,0.00,Wunderground v.1.15,2013-02-06 15:26:00,
2013-02-06 10:31:00,53.2,33.5,30.12,NNE,30,2.0,2.0,47,0.00,,,0.00,Wunderground v.1.15,2013-02-06 15:31:00,
2013-02-06 10:36:00,53.9,34.1,30.12,NW,319,0.0,5.0,47,0.00,,,0.00,Wunderground v.1.15,2013-02-06 15:36:00,
2013-02-06 10:41:00,54.3,33.4,30.12,NNE,24,0.0,2.0,45,0.00,,,0.00,Wunderground v.1.15,2013-02-06 15:41:00,
2013-02-06 10:46:00,54.6,34.2,30.12,North,355,0.0,2.0,46,0.00,,,0.00,Wunderground v.1.15,2013-02-06 15:46:00,
2013-02-06 10:51:00,55.0,32.3,30.12,WNW,303,0.0,4.0,42,0.00,,,0.00,Wunderground v.1.15,2013-02-06 15:51:00,
2013-02-06 10:56:00,55.1,33.6,30.12,NE,56,4.0,6.0,44,0.00,,,0.00,Wunderground v.1.15,2013-02-06 15:56:00,
2013-02-06 11:01:00,55.3,33.2,30.13,NW,323,0.0,4.0,43,0.00,,,0.00,Wunderground v.1.15,2013-02-06 16:01:00,
2013-02-06 11:06:00,55.4,33.3,30.13,NNE,30,0.0,4.0,43,0.00,,,0.00,Wunderground v.1.15,2013-02-06 16:06:00,
2013-02-06 11:11:00,55.8,33.0,30.13,NW,316,0.0,2.0,42,0.00,,,0.00,Wunderground v.1.15,2013-02-06 16:11:00,
2013-02-06 11:16:00,56.3,32.3,30.13,WNW,284,4.0,5.0,40,0.00,,,0.00,Wunderground v.1.15,2013-02-06 16:16:00,
2013-02-06 11:21:00,55.9,30.0,30.13,WNW,283,2.0,4.0,37,0.00,,,0.00,Wunderground v.1.15,2013-02-06 16:21:00,
2013-02-06 11:26:00,55.7,29.1,30.13,NNW,328,0.0,4.0,36,0.00,,,0.00,Wunderground v.1.15,2013-02-06 16:26:00,
2013-02-06 11:31:00,56.2,28.9,30.13,NE,37,1.0,3.0,35,0.00,,,0.00,Wunderground v.1.15,2013-02-06 16:31:00,
2013-02-06 11:37:00,56.8,30.1,30.13,NW,306,1.0,3.0,36,0.00,,,0.00,Wunderground v.1.15,2013-02-06 16:37:00,
2013-02-06 11:42:00,57.7,31.6,30.13,NW,319,1.0,3.0,37,0.00,,,0.00,Wunderground v.1.15,2013-02-06 16:42:00,
2013-02-06 11:47:00,58.3,30.0,30.12,NNE,19,3.0,4.0,34,0.00,,,0.00,Wunderground v.1.15,2013-02-06 16:47:00,
2013-02-06 11:52:00,58.0,28.3,30.13,West,279,0.0,4.0,32,0.00,,,0.00,Wunderground v.1.15,2013-02-06 16:52:00,
2013-02-06 11:57:00,58.1,27.6,30.13,North,360,0.0,7.0,31,0.00,,,0.00,Wunderground v.1.15,2013-02-06 16:57:00,
2013-02-06 12:02:00,58.4,28.6,30.13,WNW,298,2.0,5.0,32,0.00,,,0.00,Wunderground v.1.15,2013-02-06 17:02:00,
2013-02-06 12:07:00,58.5,28.7,30.13,NW,321,1.0,5.0,32,0.00,,,0.00,Wunderground v.1.15,2013-02-06 17:07:00,
2013-02-06 12:12:00,59.0,32.1,30.12,East,89,5.0,5.0,36,0.00,,,0.00,Wunderground v.1.15,2013-02-06 17:12:00,
2013-02-06 12:17:00,59.0,29.2,30.12,NW,323,3.0,8.0,32,0.00,,,0.00,Wunderground v.1.15,2013-02-06 17:17:00,
2013-02-06 12:22:00,58.7,28.9,30.12,WNW,296,3.0,6.0,32,0.00,,,0.00,Wunderground v.1.15,2013-02-06 17:22:00,
2013-02-06 12:27:00,58.4,30.1,30.12,West,277,1.0,6.0,34,0.00,,,0.00,Wunderground v.1.15,2013-02-06 17:27:00,
2013-02-06 12:32:00,58.5,31.6,30.12,NW,316,6.0,6.0,36,0.00,,,0.00,Wunderground v.1.15,2013-02-06 17:32:00,
2013-02-06 12:37:00,59.0,29.9,30.11,NNE,32,0.0,6.0,33,0.00,,,0.00,Wunderground v.1.15,2013-02-06 17:37:00,
2013-02-06 12:42:00,59.0,29.9,30.11,WNW,290,2.0,4.0,33,0.00,,,0.00,Wunderground v.1.15,2013-02-06 17:42:00,
2013-02-06 12:47:00,59.0,29.9,30.11,West,277,3.0,5.0,33,0.00,,,0.00,Wunderground v.1.15,2013-02-06 17:47:00,
2013-02-06 12:52:00,59.0,30.6,30.11,NW,310,0.0,7.0,34,0.00,,,0.00,Wunderground v.1.15,2013-02-06 17:52:00,
2013-02-06 12:57:00,59.0,30.6,30.10,ESE,109,0.0,10.0,34,0.00,,,0.00,Wunderground v.1.15,2013-02-06 17:57:00,
2013-02-06 13:02:00,59.3,30.9,30.10,WNW,291,0.0,4.0,34,0.00,,,0.00,Wunderground v.1.15,2013-02-06 18:02:00,
2013-02-06 13:07:00,60.1,31.6,30.09,NW,317,0.0,4.0,34,0.00,,,0.00,Wunderground v.1.15,2013-02-06 18:07:00,
2013-02-06 13:12:00,61.0,31.7,30.09,East,90,3.0,7.0,33,0.00,,,0.00,Wunderground v.1.15,2013-02-06 18:12:00,
2013-02-06 13:17:00,61.5,31.3,30.09,WNW,295,2.0,7.0,32,0.00,,,0.00,Wunderground v.1.15,2013-02-06 18:17:00,
2013-02-06 13:22:00,61.2,29.5,30.09,West,276,0.0,3.0,30,0.00,,,0.00,Wunderground v.1.15,2013-02-06 18:22:00,
2013-02-06 13:27:00,61.0,30.1,30.08,WNW,300,3.0,8.0,31,0.00,,,0.00,Wunderground v.1.15,2013-02-06 18:27:00,
2013-02-06 13:32:00,61.0,29.3,30.09,NW,314,5.0,5.0,30,0.00,,,0.00,Wunderground v.1.15,2013-02-06 18:32:00,
2013-02-06 13:37:00,61.4,28.8,30.08,WSW,245,4.0,7.0,29,0.00,,,0.00,Wunderground v.1.15,2013-02-06 18:37:00,
2013-02-06 13:42:00,62.0,26.7,30.08,WNW,296,4.0,5.0,26,0.00,,,0.00,Wunderground v.1.15,2013-02-06 18:42:00,
2013-02-06 13:47:00,61.8,26.5,30.08,NW,311,6.0,10.0,26,0.00,,,0.00,Wunderground v.1.15,2013-02-06 18:47:00,
2013-02-06 13:52:00,60.9,23.8,30.08,West,279,4.0,11.0,24,0.00,,,0.00,Wunderground v.1.15,2013-02-06 18:52:00,
2013-02-06 13:58:00,60.7,24.6,30.08,WNW,295,2.0,11.0,25,0.00,,,0.00,Wunderground v.1.15,2013-02-06 18:58:00,
2013-02-06 14:03:00,61.0,25.8,30.08,NW,315,3.0,13.0,26,0.00,,,-99.99,WeatherLink 6.0.0,2013-02-06 19:03:00,
2013-02-06 14:08:00,61.5,25.3,30.07,WNW,288,1.0,8.0,25,0.00,,,0.00,Wunderground v.1.15,2013-02-06 19:08:00,
2013-02-06 14:13:00,61.5,24.3,30.06,NW,313,0.0,3.0,24,0.00,,,0.00,Wunderground v.1.15,2013-02-06 19:13:00,
2013-02-06 14:18:00,61.9,24.7,30.06,SW,220,2.0,7.0,24,0.00,,,0.00,Wunderground v.1.15,2013-02-06 19:18:00,
2013-02-06 14:23:00,62.1,25.8,30.06,WNW,299,3.0,6.0,25,0.00,,,0.00,Wunderground v.1.15,2013-02-06 19:23:00,
2013-02-06 14:28:00,61.8,25.6,30.06,WNW,286,3.0,6.0,25,0.00,,,0.00,Wunderground v.1.15,2013-02-06 19:28:00,
2013-02-06 14:30:00,61.9,25.7,30.06,WNW,292,3.0,10.0,25,0.00,,,-99.99,WeatherLink 6.0.0,2013-02-06 19:30:00,
2013-02-06 14:34:00,62.4,27.0,30.06,WNW,286,3.0,3.0,26,0.00,,,0.00,Wunderground v.1.15,2013-02-06 19:34:00,
2013-02-06 14:39:00,63.0,26.6,30.06,West,278,1.0,5.0,25,0.00,,,0.00,Wunderground v.1.15,2013-02-06 19:39:00,
2013-02-06 14:44:00,63.6,27.1,30.06,NW,307,0.0,5.0,25,0.00,,,0.00,Wunderground v.1.15,2013-02-06 19:44:00,
2013-02-06 14:49:00,63.6,28.1,30.06,NE,45,3.0,5.0,26,0.00,,,0.00,Wunderground v.1.15,2013-02-06 19:49:00,
2013-02-06 14:54:00,63.4,27.9,30.06,WNW,288,5.0,10.0,26,0.00,,,0.00,Wunderground v.1.15,2013-02-06 19:54:00,
2013-02-06 14:59:00,62.9,27.5,30.06,West,279,0.0,10.0,26,0.00,,,0.00,Wunderground v.1.15,2013-02-06 19:59:00,
2013-02-06 15:04:00,63.4,27.9,30.06,WNW,290,1.0,3.0,26,0.00,,,0.00,Wunderground v.1.15,2013-02-06 20:04:00,
2013-02-06 15:09:00,63.3,23.8,30.06,NW,314,1.0,5.0,22,0.00,,,0.00,Wunderground v.1.15,2013-02-06 20:09:00,
2013-02-06 15:14:00,63.1,24.7,30.06,WNW,296,7.0,7.0,23,0.00,,,0.00,Wunderground v.1.15,2013-02-06 20:14:00,
2013-02-06 15:19:00,62.5,25.2,30.06,WNW,286,5.0,7.0,24,0.00,,,0.00,Wunderground v.1.15,2013-02-06 20:19:00,
2013-02-06 15:24:00,62.1,26.8,30.06,NW,308,7.0,9.0,26,0.00,,,0.00,Wunderground v.1.15,2013-02-06 20:24:00,
2013-02-06 15:29:00,61.8,26.5,30.06,NNE,20,0.0,9.0,26,0.00,,,0.00,Wunderground v.1.15,2013-02-06 20:29:00,
2013-02-06 15:34:00,61.8,27.4,30.06,WNW,286,2.0,6.0,27,0.00,,,0.00,Wunderground v.1.15,2013-02-06 20:34:00,
2013-02-06 15:39:00,61.6,26.3,30.06,WNW,283,4.0,7.0,26,0.00,,,0.00,Wunderground v.1.15,2013-02-06 20:39:00,
2013-02-06 15:44:00,61.6,25.4,30.06,WNW,296,0.0,8.0,25,0.00,,,0.00,Wunderground v.1.15,2013-02-06 20:44:00,
2013-02-06 15:49:00,61.7,26.4,30.06,WNW,302,1.0,8.0,26,0.00,,,0.00,Wunderground v.1.15,2013-02-06 20:49:00,
2013-02-06 15:54:00,61.7,25.5,30.06,NW,309,1.0,4.0,25,0.00,,,0.00,Wunderground v.1.15,2013-02-06 20:54:00,
2013-02-06 15:59:00,61.7,25.5,30.06,NW,312,0.0,6.0,25,0.00,,,0.00,Wunderground v.1.15,2013-02-06 20:59:00,
2013-02-06 16:04:00,61.6,26.3,30.07,WNW,300,2.0,4.0,26,0.00,,,0.00,Wunderground v.1.15,2013-02-06 21:04:00,
2013-02-06 16:09:00,61.4,26.2,30.07,NW,304,2.0,7.0,26,0.00,,,0.00,Wunderground v.1.15,2013-02-06 21:09:00,
2013-02-06 16:14:00,61.2,26.9,30.07,NW,319,1.0,2.0,27,0.00,,,0.00,Wunderground v.1.15,2013-02-06 21:14:00,
2013-02-06 16:19:00,61.2,26.9,30.06,NE,39,0.0,3.0,27,0.00,,,0.00,Wunderground v.1.15,2013-02-06 21:19:00,
2013-02-06 16:24:00,61.3,27.0,30.07,WNW,301,0.0,5.0,27,0.00,,,0.00,Wunderground v.1.15,2013-02-06 21:24:00,
2013-02-06 16:29:00,61.4,27.1,30.07,WNW,293,0.0,5.0,27,0.00,,,0.00,Wunderground v.1.15,2013-02-06 21:29:00,
2013-02-06 16:34:00,61.3,27.9,30.07,WNW,293,0.0,2.0,28,0.00,,,0.00,Wunderground v.1.15,2013-02-06 21:34:00,
2013-02-06 16:39:00,61.1,26.8,30.07,WNW,302,4.0,4.0,27,0.00,,,0.00,Wunderground v.1.15,2013-02-06 21:39:00,
2013-02-06 16:44:00,60.7,26.5,30.07,NW,309,1.0,5.0,27,0.00,,,0.00,Wunderground v.1.15,2013-02-06 21:44:00,
2013-02-06 16:49:00,60.5,27.2,30.07,WNW,300,1.0,2.0,28,0.00,,,0.00,Wunderground v.1.15,2013-02-06 21:49:00,
2013-02-06 16:54:00,60.3,27.0,30.07,WNW,299,1.0,2.0,28,0.00,,,0.00,Wunderground v.1.15,2013-02-06 21:54:00,
2013-02-06 16:59:00,60.1,27.7,30.07,WNW,298,2.0,2.0,29,0.00,,,0.00,Wunderground v.1.15,2013-02-06 21:59:00,
2013-02-06 17:00:00,60.1,27.7,30.07,WNW,292,1.0,7.0,29,0.00,,,-99.99,WeatherLink 6.0.0,2013-02-06 22:00:00,
2013-02-06 17:04:00,59.9,27.5,30.08,WNW,298,0.0,2.0,29,0.00,,,0.00,Wunderground v.1.15,2013-02-06 22:04:00,
2013-02-06 17:09:00,59.6,27.3,30.08,WNW,298,0.0,0.0,29,0.00,,,0.00,Wunderground v.1.15,2013-02-06 22:09:00,
2013-02-06 17:14:00,59.5,27.2,30.08,WNW,300,1.0,3.0,29,0.00,,,0.00,Wunderground v.1.15,2013-02-06 22:14:00,
2013-02-06 17:20:00,59.3,27.8,30.08,WNW,300,0.0,1.0,30,0.00,,,0.00,Wunderground v.1.15,2013-02-06 22:20:00,
2013-02-06 17:25:00,59.0,27.6,30.08,NW,305,2.0,3.0,30,0.00,,,0.00,Wunderground v.1.15,2013-02-06 22:25:00,
2013-02-06 17:30:00,59.0,28.4,30.08,NW,306,0.0,0.0,31,0.00,,,0.00,Wunderground v.1.15,2013-02-06 22:30:00,
2013-02-06 17:35:00,58.9,28.3,30.09,NW,306,0.0,1.0,31,0.00,,,0.00,Wunderground v.1.15,2013-02-06 22:35:00,
2013-02-06 17:40:00,58.3,28.5,30.09,NW,306,0.0,0.0,32,0.00,,,0.00,Wunderground v.1.15,2013-02-06 22:40:00,
2013-02-06 17:45:00,57.9,28.9,30.09,NW,306,0.0,0.0,33,0.00,,,0.00,Wunderground v.1.15,2013-02-06 22:45:00,
2013-02-06 17:50:00,57.5,29.3,30.10,NW,306,0.0,0.0,34,0.00,,,0.00,Wunderground v.1.15,2013-02-06 22:50:00,
2013-02-06 17:55:00,57.1,28.2,30.10,NW,306,0.0,0.0,33,0.00,,,0.00,Wunderground v.1.15,2013-02-06 22:55:00,
2013-02-06 18:00:00,56.5,27.7,30.10,NW,306,0.0,0.0,33,0.00,,,0.00,Wunderground v.1.15,2013-02-06 23:00:00,
2013-02-06 18:05:00,55.8,28.5,30.10,NW,306,0.0,0.0,35,0.00,,,0.00,Wunderground v.1.15,2013-02-06 23:05:00,
2013-02-06 18:10:00,55.1,27.9,30.11,NW,306,0.0,0.0,35,0.00,,,0.00,Wunderground v.1.15,2013-02-06 23:10:00,
2013-02-06 18:15:00,54.6,29.5,30.11,NW,306,0.0,0.0,38,0.00,,,0.00,Wunderground v.1.15,2013-02-06 23:15:00,
2013-02-06 18:20:00,53.9,30.1,30.11,NW,306,0.0,0.0,40,0.00,,,0.00,Wunderground v.1.15,2013-02-06 23:20:00,
2013-02-06 18:25:00,52.9,29.2,30.11,NW,306,0.0,0.0,40,0.00,,,0.00,Wunderground v.1.15,2013-02-06 23:25:00,
2013-02-06 18:30:00,52.3,29.9,30.10,NW,306,0.0,0.0,42,0.00,,,0.00,Wunderground v.1.15,2013-02-06 23:30:00,
2013-02-06 18:35:00,51.7,28.7,30.11,NW,306,0.0,0.0,41,0.00,,,0.00,Wunderground v.1.15,2013-02-06 23:35:00,
2013-02-06 18:41:00,51.3,29.0,30.11,NW,306,0.0,0.0,42,0.00,,,0.00,Wunderground v.1.15,2013-02-06 23:41:00,
2013-02-06 18:46:00,50.9,28.6,30.11,NW,306,0.0,0.0,42,0.00,,,0.00,Wunderground v.1.15,2013-02-06 23:46:00,
2013-02-06 18:51:00,50.7,28.4,30.11,NW,306,0.0,0.0,42,0.00,,,0.00,Wunderground v.1.15,2013-02-06 23:51:00,
2013-02-06 18:56:00,50.4,29.3,30.11,NW,306,0.0,0.0,44,0.00,,,0.00,Wunderground v.1.15,2013-02-06 23:56:00,
2013-02-06 19:01:00,49.5,29.0,30.12,NW,306,0.0,0.0,45,0.00,,,0.00,Wunderground v.1.15,2013-02-07 00:01:00,
2013-02-06 19:06:00,49.1,30.2,30.12,NW,306,0.0,0.0,48,0.00,,,0.00,Wunderground v.1.15,2013-02-07 00:06:00,
2013-02-06 19:11:00,48.6,30.3,30.12,NW,306,0.0,0.0,49,0.00,,,0.00,Wunderground v.1.15,2013-02-07 00:11:00,
2013-02-06 19:16:00,48.0,30.2,30.12,NW,306,0.0,0.0,50,0.00,,,0.00,Wunderground v.1.15,2013-02-07 00:16:00,
2013-02-06 19:21:00,47.4,30.2,30.13,NW,306,0.0,0.0,51,0.00,,,0.00,Wunderground v.1.15,2013-02-07 00:21:00,
2013-02-06 19:26:00,46.8,29.6,30.13,NW,306,0.0,1.0,51,0.00,,,0.00,Wunderground v.1.15,2013-02-07 00:26:00,
2013-02-06 19:31:00,46.4,29.7,30.14,NW,306,0.0,0.0,52,0.00,,,0.00,Wunderground v.1.15,2013-02-07 00:31:00,
2013-02-06 19:36:00,46.3,33.2,30.14,NW,306,0.0,0.0,60,0.00,,,0.00,Wunderground v.1.15,2013-02-07 00:36:00,
2013-02-06 19:41:00,46.1,29.9,30.14,NW,306,0.0,0.0,53,0.00,,,0.00,Wunderground v.1.15,2013-02-07 00:41:00,
2013-02-06 19:46:00,46.0,28.4,30.14,NW,306,0.0,0.0,50,0.00,,,0.00,Wunderground v.1.15,2013-02-07 00:46:00,
2013-02-06 19:51:00,46.0,29.3,30.14,NW,306,0.0,0.0,52,0.00,,,0.00,Wunderground v.1.15,2013-02-07 00:51:00,
2013-02-06 19:56:00,45.9,30.6,30.14,NW,306,0.0,0.0,55,0.00,,,0.00,Wunderground v.1.15,2013-02-07 00:56:00,
2013-02-06 20:00:00,45.7,30.4,30.15,NW,315,0.0,4.0,55,0.00,,,-99.99,WeatherLink 6.0.0,2013-02-07 01:00:00,
2013-02-06 20:01:00,45.5,29.8,30.14,NW,307,1.0,3.0,54,0.00,,,0.00,Wunderground v.1.15,2013-02-07 01:01:00,
2013-02-06 20:06:00,44.8,29.2,30.14,NW,308,0.0,3.0,54,0.00,,,0.00,Wunderground v.1.15,2013-02-07 01:06:00,
2013-02-06 20:12:00,44.7,28.6,30.14,NW,307,0.0,0.0,53,0.00,,,0.00,Wunderground v.1.15,2013-02-07 01:12:00,
2013-02-06 20:17:00,44.9,29.7,30.14,NW,307,0.0,0.0,55,0.00,,,0.00,Wunderground v.1.15,2013-02-07 01:17:00,
2013-02-06 20:22:00,45.0,29.8,30.14,NW,308,0.0,0.0,55,0.00,,,0.00,Wunderground v.1.15,2013-02-07 01:22:00,
2013-02-06 20:27:00,45.1,29.4,30.14,NW,308,0.0,0.0,54,0.00,,,0.00,Wunderground v.1.15,2013-02-07 01:27:00,
2013-02-06 20:32:00,45.2,30.4,30.14,NW,308,0.0,0.0,56,0.00,,,0.00,Wunderground v.1.15,2013-02-07 01:32:00,
2013-02-06 20:37:00,45.2,30.9,30.14,NW,308,0.0,1.0,57,0.00,,,0.00,Wunderground v.1.15,2013-02-07 01:37:00,
2013-02-06 20:42:00,45.0,28.9,30.14,NW,307,0.0,0.0,53,0.00,,,0.00,Wunderground v.1.15,2013-02-07 01:42:00,
2013-02-06 20:47:00,45.0,29.8,30.14,NW,307,2.0,2.0,55,0.00,,,0.00,Wunderground v.1.15,2013-02-07 01:47:00,
2013-02-06 20:52:00,44.6,29.9,30.14,WNW,298,0.0,0.0,56,0.00,,,0.00,Wunderground v.1.15,2013-02-07 01:52:00,
2013-02-06 20:57:00,44.3,29.1,30.14,WNW,298,0.0,0.0,55,0.00,,,0.00,Wunderground v.1.15,2013-02-07 01:57:00,
2013-02-06 21:00:00,44.1,29.8,30.14,WNW,292,0.0,2.0,57,0.00,,,-99.99,WeatherLink 6.0.0,2013-02-07 02:00:00,
2013-02-06 21:02:00,43.9,29.6,30.14,WNW,298,0.0,1.0,57,0.00,,,0.00,Wunderground v.1.15,2013-02-07 02:02:00,
2013-02-06 21:07:00,43.4,29.6,30.14,WNW,298,0.0,2.0,58,0.00,,,0.00,Wunderground v.1.15,2013-02-07 02:07:00,
2013-02-06 21:12:00,42.8,29.9,30.15,WNW,298,0.0,0.0,60,0.00,,,0.00,Wunderground v.1.15,2013-02-07 02:12:00,
2013-02-06 21:17:00,42.5,29.6,30.15,WNW,298,0.0,1.0,60,0.00,,,0.00,Wunderground v.1.15,2013-02-07 02:17:00,
2013-02-06 21:22:00,42.4,29.5,30.15,WNW,298,0.0,1.0,60,0.00,,,0.00,Wunderground v.1.15,2013-02-07 02:22:00,
2013-02-06 21:27:00,42.4,32.6,30.15,WNW,298,0.0,1.0,68,0.00,,,0.00,Wunderground v.1.15,2013-02-07 02:27:00,
2013-02-06 21:32:00,42.3,29.0,30.15,WNW,298,0.0,0.0,59,0.00,,,0.00,Wunderground v.1.15,2013-02-07 02:32:00,
2013-02-06 21:37:00,42.5,28.3,30.15,WNW,298,0.0,0.0,57,0.00,,,0.00,Wunderground v.1.15,2013-02-07 02:37:00,
2013-02-06 21:42:00,43.1,27.1,30.15,WNW,298,0.0,0.0,53,0.00,,,0.00,Wunderground v.1.15,2013-02-07 02:42:00,
2013-02-06 21:47:00,43.9,27.4,30.16,WNW,298,0.0,0.0,52,0.00,,,0.00,Wunderground v.1.15,2013-02-07 02:47:00,
2013-02-06 21:52:00,44.4,28.8,30.16,WNW,298,0.0,1.0,54,0.00,,,0.00,Wunderground v.1.15,2013-02-07 02:52:00,
2013-02-06 21:57:00,44.5,28.0,30.16,WNW,298,0.0,1.0,52,0.00,,,0.00,Wunderground v.1.15,2013-02-07 02:57:00,
2013-02-06 22:02:00,44.6,27.6,30.16,WNW,298,0.0,0.0,51,0.00,,,0.00,Wunderground v.1.15,2013-02-07 03:02:00,
2013-02-06 22:07:00,44.3,28.7,30.17,WNW,298,0.0,1.0,54,0.00,,,0.00,Wunderground v.1.15,2013-02-07 03:07:00,
2013-02-06 22:12:00,43.8,28.2,30.18,WNW,298,0.0,1.0,54,0.00,,,0.00,Wunderground v.1.15,2013-02-07 03:12:00,
2013-02-06 22:17:00,44.0,30.6,30.18,WNW,298,0.0,1.0,59,0.00,,,0.00,Wunderground v.1.15,2013-02-07 03:17:00,
2013-02-06 22:22:00,44.0,29.7,30.18,WNW,298,0.0,0.0,57,0.00,,,0.00,Wunderground v.1.15,2013-02-07 03:22:00,
2013-02-06 22:28:00,43.4,30.0,30.18,WNW,298,0.0,0.0,59,0.00,,,0.00,Wunderground v.1.15,2013-02-07 03:28:00,
2013-02-06 22:32:00,43.0,27.9,30.18,WNW,298,0.0,0.0,55,0.00,,,0.00,Wunderground v.1.15,2013-02-07 03:32:00,
2013-02-06 22:37:00,42.7,28.1,30.18,WNW,298,0.0,1.0,56,0.00,,,0.00,Wunderground v.1.15,2013-02-07 03:37:00,
2013-02-06 22:42:00,42.8,28.2,30.19,WNW,298,0.0,1.0,56,0.00,,,0.00,Wunderground v.1.15,2013-02-07 03:42:00,
2013-02-06 22:48:00,43.1,28.5,30.19,WNW,298,0.0,1.0,56,0.00,,,0.00,Wunderground v.1.15,2013-02-07 03:48:00,
2013-02-06 22:53:00,42.8,27.7,30.19,WNW,298,0.0,0.0,55,0.00,,,0.00,Wunderground v.1.15,2013-02-07 03:53:00,
2013-02-06 22:58:00,42.5,27.9,30.19,WNW,298,0.0,0.0,56,0.00,,,0.00,Wunderground v.1.15,2013-02-07 03:58:00,
2013-02-06 23:03:00,42.2,28.0,30.19,WNW,292,0.0,1.0,57,0.00,,,-99.99,WeatherLink 6.0.0,2013-02-07 04:03:00,
2013-02-06 23:08:00,42.0,27.9,30.18,WNW,298,0.0,0.0,57,0.00,,,0.00,Wunderground v.1.15,2013-02-07 04:08:00,
2013-02-06 23:13:00,41.9,30.6,30.18,WNW,298,0.0,0.0,64,0.00,,,0.00,Wunderground v.1.15,2013-02-07 04:13:00,
2013-02-06 23:18:00,41.5,28.6,30.18,WNW,298,0.0,0.0,60,0.00,,,0.00,Wunderground v.1.15,2013-02-07 04:18:00,
2013-02-06 23:23:00,41.3,28.9,30.18,WNW,298,0.0,0.0,61,0.00,,,0.00,Wunderground v.1.15,2013-02-07 04:23:00,
2013-02-06 23:28:00,41.2,29.5,30.18,WNW,298,0.0,0.0,63,0.00,,,0.00,Wunderground v.1.15,2013-02-07 04:28:00,
2013-02-06 23:33:00,41.1,29.1,30.18,North,-999,0.0,0.0,62,0.00,,,-99.99,WeatherLink 6.0.0,2013-02-07 04:33:00,
2013-02-06 23:38:00,40.3,29.1,30.18,WNW,298,0.0,1.0,64,0.00,,,0.00,Wunderground v.1.15,2013-02-07 04:38:00,
2013-02-06 23:43:00,40.1,28.9,30.17,WNW,298,0.0,0.0,64,0.00,,,0.00,Wunderground v.1.15,2013-02-07 04:43:00,
2013-02-06 23:48:00,40.1,29.6,30.17,WNW,298,0.0,0.0,66,0.00,,,0.00,Wunderground v.1.15,2013-02-07 04:48:00,
2013-02-06 23:53:00,40.2,28.6,30.18,WNW,298,0.0,0.0,63,0.00,,,0.00,Wunderground v.1.15,2013-02-07 04:53:00,
2013-02-06 23:59:00,40.5,27.7,30.18,WNW,298,0.0,0.0,60,0.00,,,0.00,Wunderground v.1.15,2013-02-07 04:59:00,